FW6321 Weather Reports


Display with metric or nautical units.
time (UTC)temp
F
wind
direction
speed
MPH
gust
MPH
rain 1hr
in
rain 24hr
in
rain mn
in
humidity
%
barometer
mb
20200328125151 52 54 9.0 21.0 0.00 0.00 0.00 65 1026.0
20200328124704 53 39 9.0 21.0 0.00 0.00 0.00 64 1026.1
20200328124149 52 59 8.0 19.0 0.00 0.00 0.00 65 1026.1
20200328123652 53 44 8.0 19.0 0.00 0.00 0.00 64 1026.0
20200328123151 52 4 10.0 23.0 0.00 0.00 0.00 64 1026.1
20200328122651 52 52 11.0 23.0 0.00 0.00 0.00 63 1026.1
20200328122154 53 50 10.0 21.0 0.00 0.00 0.00 64 1026.0
20200328121654 53 52 9.0 20.0 0.00 0.00 0.00 69 1026.1
20200328121152 52 16 9.0 20.0 0.00 0.00 0.00 67 1026.1
20200328120649 52 40 9.0 20.0 0.00 0.00 0.00 67 1026.2
20200328120158 53 21 7.0 16.0 0.00 0.00 0.00 65 1026.2
20200328115651 53 345 8.0 22.0 0.00 0.00 0.00 66 1026.2
20200328115151 53 81 8.0 22.0 0.00 0.00 0.00 68 1026.2
20200328114653 53 43 8.0 17.0 0.00 0.00 0.00 67 1026.2
20200328114150 53 34 8.0 16.0 0.00 0.00 0.00 67 1026.1
20200328113649 53 59 7.0 14.0 0.00 0.00 0.00 67 1026.1
20200328113150 53 106 7.0 15.0 0.00 0.00 0.00 67 1026.1
20200328112652 53 50 9.0 26.0 0.00 0.00 0.00 67 1026.0
20200328112151 53 318 10.0 26.0 0.00 0.00 0.00 67 1026.1
20200328111649 53 48 8.0 18.0 0.00 0.00 0.00 66 1026.1
20200328111139 53 43 8.0 18.0 0.00 0.00 0.00 67 1026.0
20200328110641 53 29 9.0 18.0 0.00 0.00 0.00 65 1026.1
20200328110138 53 38 10.0 22.0 0.00 0.00 0.00 67 1025.9
20200328105636 53 92 11.0 22.0 0.00 0.00 0.00 62 1026.0
20200328105142 53 60 12.0 21.0 0.00 0.00 0.00 61 1026.0
20200328104639 53 51 12.0 19.0 0.00 0.00 0.00 61 1025.8
20200328104133 53 58 12.0 21.0 0.00 0.00 0.00 63 1025.8
20200328103636 52 33 12.0 21.0 0.00 0.00 0.00 61 1025.9
20200328103137 52 62 12.0 22.0 0.00 0.00 0.00 60 1025.9
20200328102649 52 56 11.0 23.0 0.00 0.00 0.00 59 1025.9
20200328102149 52 101 10.0 23.0 0.00 0.00 0.00 60 1025.8
20200328101638 52 359 10.0 20.0 0.00 0.00 0.00 62 1025.8
20200328101133 52 56 12.0 20.0 0.00 0.00 0.00 59 1025.9
20200328100633 51 235 13.0 26.0 0.00 0.00 0.00 58 1025.8
20200328100131 51 44 12.0 26.0 0.00 0.00 0.00 57 1025.8
20200328095633 51 18 10.0 19.0 0.00 0.00 0.00 58 1025.8
20200328095131 51 71 11.0 26.0 0.00 0.00 0.00 59 1025.8
20200328094644 51 61 12.0 26.0 0.00 0.00 0.00 60 1025.8
20200328094150 50 81 12.0 24.0 0.00 0.00 0.00 60 1025.7
20200328093637 50 52 12.0 19.0 0.00 0.00 0.00 61 1025.6
20200328093142 50 54 14.0 24.0 0.00 0.00 0.00 61 1025.7
20200328092649 50 57 13.0 24.0 0.00 0.00 0.00 60 1025.6
20200328092137 50 75 11.0 21.0 0.00 0.00 0.00 62 1025.7
20200328091633 49 19 10.0 21.0 0.00 0.00 0.00 64 1025.5
20200328091137 49 30 11.0 23.0 0.00 0.00 0.00 63 1025.6
20200328090629 49 91 13.0 23.0 0.00 0.00 0.00 63 1025.5
20200328090131 49 60 12.0 21.0 0.00 0.00 0.00 63 1025.5
20200328085638 48 37 10.0 21.0 0.00 0.00 0.00 65 1025.4
20200328085129 48 56 11.0 22.0 0.00 0.00 0.00 65 1025.4
20200328084625 48 69 11.0 22.0 0.00 0.00 0.00 66 1025.4
20200328084129 47 62 9.0 21.0 0.00 0.00 0.00 66 1025.3
20200328083626 47 23 9.0 21.0 0.00 0.00 0.00 66 1025.4
20200328083130 47 62 10.0 16.0 0.00 0.00 0.00 66 1025.4
20200328082635 47 56 9.0 16.0 0.00 0.00 0.00 67 1025.3
20200328082133 46 60 8.0 19.0 0.00 0.00 0.00 68 1025.2
20200328081625 46 23 9.0 19.0 0.00 0.00 0.00 68 1025.2
20200328081123 46 124 10.0 23.0 0.00 0.00 0.00 69 1025.1
20200328080632 46 61 10.0 23.0 0.00 0.00 0.00 70 1025.0
20200328080121 45 91 9.0 21.0 0.00 0.00 0.00 70 1025.0
20200328075623 45 65 9.0 17.0 0.00 0.00 0.00 71 1025.0
20200328075122 45 63 10.0 18.0 0.00 0.00 0.00 71 1024.9
20200328074620 44 8 10.0 18.0 0.00 0.00 0.00 72 1024.9
20200328074128 44 70 9.0 16.0 0.00 0.00 0.00 73 1024.7
20200328073629 44 59 7.0 16.0 0.00 0.00 0.00 73 1024.8
20200328073117 43 316 8.0 16.0 0.00 0.00 0.00 74 1024.6
20200328072612 43 36 10.0 19.0 0.00 0.00 0.00 74 1024.5
20200328072114 43 77 10.0 19.0 0.00 0.00 0.00 73 1024.6
20200328071612 43 59 9.0 18.0 0.00 0.00 0.00 74 1024.5
20200328071114 42 23 10.0 18.0 0.00 0.00 0.00 73 1024.4
20200328070609 42 52 9.0 18.0 0.00 0.00 0.00 73 1024.3
20200328070111 42 82 8.0 15.0 0.00 0.00 0.00 74 1024.3
20200328065603 42 30 8.0 16.0 0.00 0.00 0.00 75 1024.2
20200328065106 42 54 9.0 17.0 0.00 0.00 0.00 75 1024.2
20200328064606 41 67 8.0 17.0 0.00 0.00 0.00 75 1024.2
20200328064101 41 72 8.0 17.0 0.00 0.00 0.00 76 1024.2
20200328063600 41 22 9.0 17.0 0.00 0.00 0.00 77 1024.2
20200328063101 41 48 8.0 15.0 0.00 0.00 0.00 77 1024.1
20200328062601 41 326 8.0 15.0 0.00 0.00 0.00 78 1024.1
20200328062100 40 73 8.0 13.0 0.00 0.00 0.00 78 1024.1
20200328061600 40 32 8.0 16.0 0.00 0.00 0.00 78 1024.0
20200328061056 40 18 7.0 16.0 0.00 0.00 0.00 78 1024.0
20200328060556 40 48 6.0 13.0 0.00 0.00 0.00 78 1023.9
20200328060059 40 58 7.0 13.0 0.00 0.00 0.00 79 1023.8
20200328055556 40 67 7.0 14.0 0.00 0.00 0.00 79 1023.7
20200328055056 40 34 6.0 14.0 0.00 0.00 0.00 79 1023.7
20200328054556 40 21 6.0 11.0 0.00 0.00 0.00 80 1023.6
20200328054056 40 37 6.0 12.0 0.00 0.00 0.00 79 1023.6
20200328053550 40 59 6.0 12.0 0.00 0.00 0.00 79 1023.5
20200328053052 40 58 6.0 12.0 0.00 0.00 0.00 79 1023.4
20200328052559 40 56 5.0 12.0 0.00 0.00 0.00 80 1023.3
20200328052053 40 44 5.0 12.0 0.00 0.00 0.00 79 1023.3
20200328051550 40 45 5.0 12.0 0.00 0.00 0.00 79 1023.3
20200328051050 40 45 5.0 11.0 0.00 0.00 0.00 79 1023.2
20200328050547 40 70 5.0 11.0 0.00 0.00 0.00 79 1023.3
20200328050045 40 72 6.0 11.0 0.00 0.00 0.00 79 1023.2
20200328045559 40 62 6.0 13.0 0.00 0.00 0.00 79 1023.2
20200328045048 40 65 5.0 13.0 0.00 0.00 0.00 79 1023.1
20200328044553 41 62 5.0 11.0 0.00 0.00 0.00 80 1023.1
20200328044059 41 64 6.0 11.0 0.00 0.00 0.00 80 1023.1
20200328043548 41 43 5.0 11.0 0.00 0.00 0.00 80 1023.1
20200328043045 41 53 4.0 12.0 0.00 0.00 0.00 80 1023.1
20200328042556 41 10 5.0 12.0 0.00 0.00 0.00 80 1023.1
20200328042042 41 12 6.0 13.0 0.00 0.00 0.00 80 1023.0
20200328041544 41 349 6.0 13.0 0.00 0.00 0.00 80 1023.1
20200328041044 41 12 5.0 11.0 0.00 0.00 0.00 80 1023.0
20200328040555 41 73 5.0 16.0 0.00 0.00 0.00 80 1023.0
20200328040048 41 129 7.0 16.0 0.00 0.00 0.00 80 1023.0
20200328035548 41 48 6.0 13.0 0.00 0.00 0.00 80 1022.9
20200328035040 41 33 6.0 12.0 0.00 0.00 0.00 80 1022.8
20200328034538 41 38 6.0 14.0 0.00 0.00 0.00 80 1022.7
20200328034039 42 77 7.0 14.0 0.00 0.00 0.00 80 1022.8
20200328033544 42 54 6.0 14.0 0.00 0.00 0.00 80 1022.8
20200328033036 42 68 5.0 13.0 0.00 0.00 0.00 80 1022.7
20200328032546 42 60 6.0 13.0 0.00 0.00 0.00 80 1022.7
20200328032031 42 35 6.0 15.0 0.00 0.00 0.00 80 1022.7
20200328031533 42 78 6.0 15.0 0.00 0.00 0.00 80 1022.7
20200328031032 42 45 6.0 13.0 0.00 0.00 0.00 80 1022.7
20200328030532 42 57 5.0 12.0 0.00 0.00 0.00 81 1022.7
20200328030035 42 70 4.0 11.0 0.00 0.00 0.00 80 1022.7
20200328025537 42 87 4.0 11.0 0.00 0.00 0.00 80 1022.7
20200328025036 42 37 5.0 9.0 0.00 0.00 0.00 80 1022.6
20200328024532 42 74 5.0 9.0 0.00 0.00 0.00 80 1022.6
20200328024027 42 14 4.0 10.0 0.00 0.00 0.00 80 1022.5
20200328023530 42 30 4.0 10.0 0.00 0.00 0.00 80 1022.6
20200328023027 42 39 4.0 9.0 0.00 0.00 0.00 80 1022.6
20200328022540 42 70 4.0 10.0 0.00 0.00 0.00 80 1022.5
20200328022044 42 19 4.0 10.0 0.00 0.00 0.00 80 1022.5
20200328021535 42 23 5.0 12.0 0.00 0.00 0.00 80 1022.3
20200328021031 42 28 5.0 14.0 0.00 0.00 0.00 80 1022.3
20200328020525 43 27 5.0 14.0 0.00 0.00 0.00 79 1022.3
20200328020028 43 48 5.0 11.0 0.00 0.00 0.00 80 1022.4
20200328015528 43 26 4.0 10.0 0.00 0.00 0.00 80 1022.3
20200328015023 43 29 5.0 10.0 0.00 0.00 0.00 80 1022.4
20200328014524 43 52 5.0 10.0 0.00 0.00 0.00 79 1022.4
20200328014030 43 27 4.0 10.0 0.00 0.00 0.00 80 1022.3
20200328013523 43 56 4.0 9.0 0.00 0.00 0.00 79 1022.4
20200328013022 43 82 4.0 10.0 0.00 0.00 0.00 79 1022.3
20200328012518 43 70 4.0 10.0 0.00 0.00 0.00 79 1022.2
20200328012016 43 55 5.0 11.0 0.00 0.00 0.00 79 1022.2
20200328011506 43 38 5.0 11.0 0.00 0.00 0.00 79 1022.3
20200328011008 43 52 5.0 13.0 0.00 0.00 0.00 79 1022.5
20200328010007 43 58 5.0 14.0 0.00 0.00 0.00 80 1022.3
20200328005503 43 46 4.0 7.0 0.00 0.00 0.00 80 1022.2
20200328004509 43 47 4.0 10.0 0.00 0.00 0.00 80 1022.3
20200328004003 43 39 4.0 10.0 0.00 0.00 0.00 80 1022.3
20200328003506 43 45 4.0 10.0 0.00 0.00 0.00 80 1022.3
20200328003014 43 29 4.0 10.0 0.00 0.00 0.00 79 1022.3
20200328002518 43 54 5.0 13.0 0.00 0.00 0.00 79 1022.2
20200328002009 44 37 5.0 13.0 0.00 0.00 0.00 79 1022.2
20200328001000 44 197 5.0 17.0 0.00 0.00 0.00 79 1022.2
20200328000507 44 57 5.0 10.0 0.00 0.00 0.00 79 1022.2
20200328000019 44 27 5.0 13.0 0.00 0.00 0.00 79 1022.2
20200327235503 44 71 5.0 13.0 0.00 0.00 0.00 78 1022.2
20200327235003 44 38 5.0 12.0 0.00 0.00 0.00 78 1022.2
20200327234502 44 41 5.0 11.0 0.00 0.00 0.00 78 1022.1
20200327234000 44 54 5.0 11.0 0.00 0.00 0.00 78 1022.2
20200327233544 44 36 5.0 14.0 0.00 0.00 0.00 78 1022.2
20200327233000 44 37 5.0 14.0 0.00 0.00 0.00 78 1022.2
20200327232500 44 19 5.0 11.0 0.00 0.00 0.00 78 1022.2
20200327232013 44 324 5.0 11.0 0.00 0.00 0.00 78 1022.1
20200327231458 44 46 4.0 11.0 0.00 0.00 0.00 78 1022.2
20200327230957 45 16 5.0 11.0 0.00 0.00 0.00 78 1022.2
20200327230457 45 47 5.0 10.0 0.00 0.00 0.00 78 1022.1
20200327225457 45 70 6.0 12.0 0.00 0.00 0.00 78 1022.2
20200327224959 45 46 6.0 13.0 0.00 0.00 0.00 78 1022.1
20200327224455 45 28 6.0 13.0 0.00 0.00 0.00 78 1022.2
20200327224005 45 20 6.0 12.0 0.00 0.00 0.00 78 1022.2
20200327223456 45 64 6.0 12.0 0.00 0.00 0.00 78 1022.2
20200327222952 45 79 6.0 14.0 0.00 0.00 0.00 78 1022.2
20200327222451 45 103 6.0 14.0 0.00 0.00 0.00 78 1022.2
20200327221957 45 66 5.0 12.0 0.00 0.00 0.00 78 1022.2
20200327221445 45 66 5.0 12.0 0.00 0.00 0.00 78 1022.3
20200327220945 46 35 5.0 10.0 0.00 0.00 0.00 78 1022.2
20200327220449 46 30 5.0 11.0 0.00 0.00 0.00 77 1022.3
20200327215946 46 46 5.0 11.0 0.00 0.00 0.00 77 1022.3
20200327215445 46 52 6.0 15.0 0.00 0.00 0.00 77 1022.3
20200327214950 46 41 7.0 16.0 0.00 0.00 0.00 77 1022.3
20200327214439 46 60 7.0 16.0 0.00 0.00 0.00 77 1022.2
20200327213941 46 56 7.0 12.0 0.00 0.00 0.00 77 1022.2
20200327213447 46 29 7.0 14.0 0.00 0.00 0.00 77 1022.2
20200327212938 46 26 7.0 14.0 0.00 0.00 0.00 77 1022.0
20200327212438 46 35 6.0 11.0 0.00 0.00 0.00 78 1022.0
20200327211942 46 19 6.0 14.0 0.00 0.00 0.00 78 1021.9
20200327211439 46 22 6.0 14.0 0.00 0.00 0.00 78 1022.0
20200327210935 46 34 6.0 15.0 0.00 0.00 0.00 78 1022.0
20200327210439 47 40 6.0 15.0 0.00 0.00 0.00 78 1021.9
20200327205940 47 47 6.0 12.0 0.00 0.00 0.00 78 1021.9
20200327205439 47 91 6.0 13.0 0.00 0.00 0.00 78 1021.9
20200327204935 46 35 6.0 13.0 0.00 0.00 0.00 78 1021.8
20200327204435 47 45 6.0 15.0 0.00 0.00 0.00 78 1021.8
20200327203933 47 43 5.0 15.0 0.00 0.00 0.00 78 1021.7
20200327203435 47 33 5.0 11.0 0.00 0.00 0.00 78 1021.7
20200327202940 47 93 5.0 10.0 0.00 0.00 0.00 78 1021.6
20200327202435 47 35 5.0 10.0 0.00 0.00 0.00 78 1021.5
20200327201926 47 48 4.0 11.0 0.00 0.00 0.00 77 1021.5
20200327201432 47 104 5.0 11.0 0.00 0.00 0.00 77 1021.4
20200327200929 47 333 5.0 12.0 0.00 0.00 0.00 77 1021.3
20200327200422 48 20 6.0 13.0 0.00 0.00 0.00 76 1021.4
20200327195932 48 70 6.0 13.0 0.00 0.00 0.00 76 1021.4
20200327195423 48 27 6.0 13.0 0.00 0.00 0.00 76 1021.3
20200327194919 48 344 6.0 15.0 0.00 0.00 0.00 76 1021.3
20200327194422 48 46 6.0 16.0 0.00 0.00 0.00 76 1021.2
20200327193924 48 46 6.0 11.0 0.00 0.00 0.00 76 1021.2
20200327193418 48 55 6.0 13.0 0.00 0.00 0.00 76 1021.2
20200327192915 49 43 6.0 17.0 0.00 0.00 0.00 75 1021.2
20200327192415 49 16 5.0 17.0 0.00 0.00 0.00 75 1021.2
20200327191917 49 48 6.0 13.0 0.00 0.00 0.00 75 1021.1
20200327191409 49 40 5.0 12.0 0.00 0.00 0.00 75 1021.2
20200327190940 49 37 5.0 13.0 0.00 0.00 0.00 75 1021.1
20200327190410 49 26 5.0 13.0 0.00 0.00 0.00 75 1021.1
20200327185924 49 18 5.0 12.0 0.00 0.00 0.00 74 1021.0
20200327185411 49 98 5.0 12.0 0.00 0.00 0.00 74 1021.0
20200327184918 49 48 5.0 11.0 0.00 0.00 0.00 74 1021.0
20200327184410 49 50 6.0 12.0 0.00 0.00 0.00 74 1020.9
20200327183915 49 351 5.0 12.0 0.00 0.00 0.00 73 1020.8
20200327183411 49 58 4.0 10.0 0.00 0.00 0.00 73 1020.8
20200327182915 50 45 4.0 10.0 0.00 0.00 0.00 73 1020.6
20200327182409 50 43 5.0 12.0 0.00 0.00 0.00 72 1020.6
20200327181927 50 37 5.0 12.0 0.00 0.00 0.00 72 1020.5
20200327181410 50 48 5.0 11.0 0.00 0.00 0.00 71 1020.5
20200327180909 50 85 5.0 13.0 0.00 0.00 0.00 71 1020.5
20200327180410 51 58 5.0 13.0 0.00 0.00 0.00 70 1020.4
20200327175910 51 37 6.0 15.0 0.00 0.00 0.00 69 1020.3
20200327175410 51 14 6.0 15.0 0.00 0.00 0.00 68 1020.3
20200327174916 52 48 6.0 14.0 0.00 0.00 0.00 68 1020.3
20200327174419 52 28 6.0 14.0 0.00 0.00 0.00 67 1020.2
20200327173908 52 338 5.0 11.0 0.00 0.00 0.00 66 1020.2
20200327173409 53 59 5.0 16.0 0.00 0.00 0.00 65 1020.2
20200327172913 53 40 5.0 16.0 0.00 0.00 0.00 64 1020.1
20200327172411 54 14 5.0 10.0 0.00 0.00 0.00 63 1020.0
20200327171917 54 80 5.0 11.0 0.00 0.00 0.00 62 1019.9
20200327171402 55 64 5.0 11.0 0.00 0.00 0.00 60 1020.0
20200327170908 56 357 5.0 10.0 0.00 0.00 0.00 58 1019.9
20200327170402 57 45 7.0 16.0 0.00 0.00 0.00 54 1019.8
20200327165905 58 54 8.0 16.0 0.00 0.00 0.00 49 1019.8
20200327165401 58 45 8.0 14.0 0.00 0.00 0.00 48 1019.7
20200327164904 58 45 9.0 16.0 0.00 0.00 0.00 48 1019.8
20200327164402 58 27 10.0 16.0 0.00 0.00 0.00 47 1019.7
20200327163902 58 52 9.0 16.0 0.00 0.00 0.00 47 1019.7
20200327163407 58 67 10.0 18.0 0.00 0.00 0.00 47 1019.7
20200327162903 58 71 10.0 18.0 0.00 0.00 0.00 47 1019.6
20200327162405 58 86 9.0 14.0 0.00 0.00 0.00 47 1019.6
20200327161857 58 51 8.0 14.0 0.00 0.00 0.00 47 1019.7
20200327161407 58 32 10.0 16.0 0.00 0.00 0.00 45 1019.6
20200327160905 58 62 10.0 17.0 0.00 0.00 0.00 46 1019.7
20200327160400 58 53 8.0 17.0 0.00 0.00 0.00 46 1019.6
20200327155859 58 54 8.0 16.0 0.00 0.00 0.00 47 1019.7
20200327155400 58 38 9.0 17.0 0.00 0.00 0.00 45 1019.8
20200327154901 58 78 8.0 17.0 0.00 0.00 0.00 46 1019.8
20200327154400 58 62 8.0 13.0 0.00 0.00 0.00 46 1019.7
20200327153905 58 78 10.0 18.0 0.00 0.00 0.00 46 1019.8
20200327153359 58 50 9.0 18.0 0.00 0.00 0.00 46 1019.8
20200327152900 58 106 9.0 18.0 0.00 0.00 0.00 46 1019.9
20200327152353 58 86 10.0 18.0 0.00 0.00 0.00 46 1019.9
20200327151855 58 87 8.0 16.0 0.00 0.00 0.00 46 1019.9
20200327151353 58 76 8.0 18.0 0.00 0.00 0.00 45 1019.9
20200327150851 58 56 8.0 18.0 0.00 0.00 0.00 45 1020.0
20200327150352 58 43 9.0 19.0 0.00 0.00 0.00 48 1020.0
20200327145855 58 69 11.0 22.0 0.00 0.00 0.00 48 1020.0
20200327145354 58 75 12.0 22.0 0.00 0.00 0.00 44 1020.0
20200327144853 58 77 10.0 21.0 0.00 0.00 0.00 45 1020.0
20200327144352 58 40 8.0 15.0 0.00 0.00 0.00 48 1020.0
20200327143847 58 70 8.0 18.0 0.00 0.00 0.00 49 1020.0
20200327143355 58 64 8.0 18.0 0.00 0.00 0.00 48 1020.1
20200327142845 58 62 9.0 20.0 0.00 0.00 0.00 48 1020.1
20200327142348 58 82 9.0 20.0 0.00 0.00 0.00 46 1020.2
20200327141845 58 60 8.0 17.0 0.00 0.00 0.00 45 1020.1
20200327141349 58 57 9.0 17.0 0.00 0.00 0.00 46 1020.1
20200327140839 58 63 9.0 15.0 0.00 0.00 0.00 44 1020.2
20200327140341 58 122 9.0 15.0 0.00 0.00 0.00 49 1020.2
20200327135842 57 91 10.0 18.0 0.00 0.00 0.00 47 1020.2
20200327135335 57 215 10.0 18.0 0.00 0.00 0.00 47 1020.2
20200327134836 57 50 10.0 18.0 0.00 0.00 0.00 49 1020.3
20200327134336 57 73 9.0 18.0 0.00 0.00 0.00 45 1020.3
20200327133838 58 9 8.0 16.0 0.00 0.00 0.00 45 1020.4
20200327133331 57 52 7.0 16.0 0.00 0.00 0.00 47 1020.4
20200327132838 57 130 6.0 18.0 0.00 0.00 0.00 51 1020.4
20200327132333 57 80 7.0 18.0 0.00 0.00 0.00 50 1020.4
20200327131846 57 48 8.0 20.0 0.00 0.00 0.00 49 1020.5
20200327131333 56 40 9.0 20.0 0.00 0.00 0.00 49 1020.5
20200327130840 56 49 10.0 17.0 0.00 0.00 0.00 50 1020.5
20200327130328 56 42 9.0 19.0 0.00 0.00 0.00 49 1020.6
20200327125842 55 37 9.0 19.0 0.00 0.00 0.00 50 1020.6
20200327125339 55 74 9.0 18.0 0.00 0.00 0.00 51 1020.7